Location: Unspecified
(0.0000°N, 0.0000°E)
Time: 06:36:12
(UTC+00:00)

Hubble Space Telescope - Pass Details

Date: 22 July 2021
Orbit: 535 x 539 km, 28.5° (Epoch: 31 July)

Event Time Altitude Azimuth Distance (km) Brightness Sun altitude
Exits shadow 04:06:36 32° 31° (NNE) 916 2.3 -28.0°
Drops below altitude 10° 04:10:16 10° 94° (E) 1,779 4.2 -27.1°
Sets 04:12:41 0° 104° (ESE) 2,672 5.1 -26.6°
